Time,TemperatureF,DewpointF,PressureIn,WindDirection,WindDirectionDegrees,WindSpeedMPH,WindSpeedGustMPH,Humidity,HourlyPrecipIn,Conditions,Clouds,dailyrainin,SoftwareType,DateUTC
2013-07-06 00:00:00,58.5,-99.9,29.68,ESE,103,0.0,0.0,-999,-99.99,,,-99.99,,2013-07-06 07:00:00,
2013-07-06 00:05:00,58.2,-99.9,29.68,ENE,73,0.0,7.9,-999,-99.99,,,-99.99,,2013-07-06 07:05:00,
2013-07-06 00:10:00,58.2,-99.9,29.68,SE,125,14.6,25.3,-999,-99.99,,,-99.99,,2013-07-06 07:10:00,
2013-07-06 00:15:00,58.1,-99.9,29.68,East,97,0.0,20.4,-999,-99.99,,,-99.99,,2013-07-06 07:15:00,
2013-07-06 00:20:00,58.3,-99.9,29.68,East,97,13.5,21.7,-999,-99.99,,,-99.99,,2013-07-06 07:20:00,
2013-07-06 00:25:00,58.2,-99.9,29.68,East,101,0.0,18.2,-999,-99.99,,,-99.99,,2013-07-06 07:25:00,
2013-07-06 00:30:00,58.4,-99.9,29.68,East,81,0.0,18.7,-999,-99.99,,,-99.99,,2013-07-06 07:30:00,
2013-07-06 00:35:00,58.0,-99.9,29.68,ESE,103,11.3,16.4,-999,-99.99,,,-99.99,,2013-07-06 07:35:00,
2013-07-06 00:40:00,58.2,-99.9,29.68,East,86,0.0,12.6,-999,-99.99,,,-99.99,,2013-07-06 07:40:00,
2013-07-06 00:45:00,58.3,-99.9,29.67,East,80,0.0,8.9,-999,-99.99,,,-99.99,,2013-07-06 07:45:00,
2013-07-06 00:50:00,58.2,-99.9,29.67,ESE,118,15.8,19.5,-999,-99.99,,,-99.99,,2013-07-06 07:50:00,
2013-07-06 00:55:00,58.1,-99.9,29.67,East,86,0.0,25.7,-999,-99.99,,,-99.99,,2013-07-06 07:55:00,
2013-07-06 01:00:00,58.7,-99.9,29.68,East,86,0.0,0.0,-999,-99.99,,,-99.99,,2013-07-06 08:00:00,
2013-07-06 01:05:00,58.5,-99.9,29.67,East,84,9.0,24.0,-999,-99.99,,,-99.99,,2013-07-06 08:05:00,
2013-07-06 01:10:00,58.0,-99.9,29.67,ESE,114,11.9,13.8,-999,-99.99,,,-99.99,,2013-07-06 08:10:00,
2013-07-06 01:15:00,58.2,-99.9,29.67,NE,42,0.0,17.9,-999,-99.99,,,-99.99,,2013-07-06 08:15:00,
2013-07-06 01:20:00,58.3,-99.9,29.67,ENE,77,0.0,0.0,-999,-99.99,,,-99.99,,2013-07-06 08:20:00,
2013-07-06 01:25:00,58.6,-99.9,29.67,ENE,77,0.0,0.0,-999,-99.99,,,-99.99,,2013-07-06 08:25:00,
2013-07-06 01:30:00,58.4,-99.9,29.67,ESE,111,0.0,15.6,-999,-99.99,,,-99.99,,2013-07-06 08:30:00,
2013-07-06 01:35:00,58.0,-99.9,29.67,ESE,118,8.9,20.4,-999,-99.99,,,-99.99,,2013-07-06 08:35:00,
2013-07-06 01:40:00,57.5,-99.9,29.67,East,81,13.0,18.7,-999,-99.99,,,-99.99,,2013-07-06 08:40:00,
2013-07-06 01:45:00,57.9,-99.9,29.67,ESE,117,19.2,29.6,-999,-99.99,,,-99.99,,2013-07-06 08:45:00,
2013-07-06 01:50:00,58.0,-99.9,29.67,East,101,0.0,9.0,-999,-99.99,,,-99.99,,2013-07-06 08:50:00,
2013-07-06 01:55:00,58.2,-99.9,29.67,ESE,105,0.0,0.0,-999,-99.99,,,-99.99,,2013-07-06 08:55:00,
2013-07-06 02:00:00,58.3,-99.9,29.67,ENE,77,8.4,14.8,-999,-99.99,,,-99.99,,2013-07-06 09:00:00,
2013-07-06 02:05:00,58.2,-99.9,29.67,East,91,0.0,0.0,-999,-99.99,,,-99.99,,2013-07-06 09:05:00,
2013-07-06 02:10:00,58.1,-99.9,29.67,ENE,59,0.0,18.8,-999,-99.99,,,-99.99,,2013-07-06 09:10:00,
2013-07-06 02:15:00,57.7,-99.9,29.67,ESE,105,0.0,15.3,-999,-99.99,,,-99.99,,2013-07-06 09:15:00,
2013-07-06 02:20:00,58.0,-99.9,29.67,ESE,104,0.0,0.0,-999,-99.99,,,-99.99,,2013-07-06 09:20:00,
2013-07-06 02:25:00,57.9,-99.9,29.67,East,80,0.0,0.0,-999,-99.99,,,-99.99,,2013-07-06 09:25:00,
2013-07-06 02:30:00,57.8,-99.9,29.67,NE,42,0.0,0.0,-999,-99.99,,,-99.99,,2013-07-06 09:30:00,
2013-07-06 02:35:00,58.0,-99.9,29.67,East,100,0.0,14.2,-999,-99.99,,,-99.99,,2013-07-06 09:35:00,
2013-07-06 02:40:00,57.9,-99.9,29.67,East,97,0.0,11.9,-999,-99.99,,,-99.99,,2013-07-06 09:40:00,
2013-07-06 02:45:00,57.9,-99.9,29.67,East,84,0.0,0.0,-999,-99.99,,,-99.99,,2013-07-06 09:45:00,
2013-07-06 02:50:00,57.9,-99.9,29.67,East,84,0.0,0.0,-999,-99.99,,,-99.99,,2013-07-06 09:50:00,
2013-07-06 02:55:00,58.1,-99.9,29.67,ENE,59,0.0,11.3,-999,-99.99,,,-99.99,,2013-07-06 09:55:00,
2013-07-06 03:00:00,57.9,-99.9,29.67,East,88,0.0,0.0,-999,-99.99,,,-99.99,,2013-07-06 10:00:00,
2013-07-06 03:05:00,57.8,-99.9,29.67,ENE,74,0.0,0.0,-999,-99.99,,,-99.99,,2013-07-06 10:05:00,
2013-07-06 03:10:00,57.9,-99.9,29.67,East,81,0.0,20.3,-999,-99.99,,,-99.99,,2013-07-06 10:10:00,
2013-07-06 03:15:00,57.7,-99.9,29.67,ENE,77,0.0,0.0,-999,-99.99,,,-99.99,,2013-07-06 10:15:00,
2013-07-06 03:20:00,57.4,-99.9,29.67,East,93,0.0,18.5,-999,-99.99,,,-99.99,,2013-07-06 10:20:00,
2013-07-06 03:25:00,57.6,-99.9,29.67,East,79,0.0,0.0,-999,-99.99,,,-99.99,,2013-07-06 10:25:00,
2013-07-06 03:30:00,57.5,-99.9,29.67,ESE,119,0.0,0.0,-999,-99.99,,,-99.99,,2013-07-06 10:30:00,
2013-07-06 03:35:00,57.7,-99.9,29.67,ENE,74,11.9,13.7,-999,-99.99,,,-99.99,,2013-07-06 10:35:00,
2013-07-06 03:40:00,57.7,-99.9,29.67,ESE,104,14.3,18.8,-999,-99.99,,,-99.99,,2013-07-06 10:40:00,
2013-07-06 03:45:00,57.6,-99.9,29.67,East,84,0.0,18.5,-999,-99.99,,,-99.99,,2013-07-06 10:45:00,
2013-07-06 03:50:00,57.8,-99.9,29.67,East,84,0.0,0.0,-999,-99.99,,,-99.99,,2013-07-06 10:50:00,
2013-07-06 04:00:00,57.4,-99.9,29.68,East,101,0.0,12.6,-999,-99.99,,,-99.99,,2013-07-06 11:00:00,
2013-07-06 04:05:00,57.7,-99.9,29.68,East,80,0.0,16.7,-999,-99.99,,,-99.99,,2013-07-06 11:05:00,
2013-07-06 04:10:00,57.5,-99.9,29.68,ESE,103,0.0,8.9,-999,-99.99,,,-99.99,,2013-07-06 11:10:00,
2013-07-06 04:15:00,57.8,-99.9,29.67,East,87,0.0,0.0,-999,-99.99,,,-99.99,,2013-07-06 11:15:00,
2013-07-06 04:20:00,57.5,-99.9,29.68,ESE,111,0.0,0.0,-999,-99.99,,,-99.99,,2013-07-06 11:20:00,
2013-07-06 04:25:00,57.5,-99.9,29.68,ESE,111,0.0,0.0,-999,-99.99,,,-99.99,,2013-07-06 11:25:00,
2013-07-06 04:30:00,57.2,-99.9,29.68,ESE,111,0.0,0.0,-999,-99.99,,,-99.99,,2013-07-06 11:30:00,
2013-07-06 04:35:00,57.4,-99.9,29.68,ESE,118,0.0,0.0,-999,-99.99,,,-99.99,,2013-07-06 11:35:00,
2013-07-06 04:40:00,57.6,-99.9,29.68,East,81,0.0,8.7,-999,-99.99,,,-99.99,,2013-07-06 11:40:00,
2013-07-06 04:45:00,57.4,-99.9,29.67,East,81,0.0,0.0,-999,-99.99,,,-99.99,,2013-07-06 11:45:00,
2013-07-06 04:50:00,57.2,-99.9,29.68,East,83,0.0,0.0,-999,-99.99,,,-99.99,,2013-07-06 11:50:00,
2013-07-06 04:55:00,57.3,-99.9,29.68,ESE,104,0.0,3.1,-999,-99.99,,,-99.99,,2013-07-06 11:55:00,
2013-07-06 05:00:00,57.2,-99.9,29.68,SE,128,12.2,19.3,-999,-99.99,,,-99.99,,2013-07-06 12:00:00,
2013-07-06 05:05:00,57.5,-99.9,29.68,SE,128,0.0,0.0,-999,-99.99,,,-99.99,,2013-07-06 12:05:00,
2013-07-06 05:10:00,57.4,-99.9,29.68,East,91,0.0,0.0,-999,-99.99,,,-99.99,,2013-07-06 12:10:00,
2013-07-06 05:15:00,57.7,-99.9,29.68,East,91,0.0,0.0,-999,-99.99,,,-99.99,,2013-07-06 12:15:00,
2013-07-06 05:20:00,57.4,-99.9,29.68,SE,145,0.0,0.0,-999,-99.99,,,-99.99,,2013-07-06 12:20:00,
2013-07-06 05:25:00,57.1,-99.9,29.68,NE,52,0.0,22.5,-999,-99.99,,,-99.99,,2013-07-06 12:25:00,
2013-07-06 05:30:00,57.2,-99.9,29.68,ESE,111,0.0,0.0,-999,-99.99,,,-99.99,,2013-07-06 12:30:00,
2013-07-06 05:35:00,57.1,-99.9,29.68,ESE,114,11.1,21.6,-999,-99.99,,,-99.99,,2013-07-06 12:35:00,
2013-07-06 05:40:00,57.3,-99.9,29.68,ESE,110,0.0,0.0,-999,-99.99,,,-99.99,,2013-07-06 12:40:00,
2013-07-06 05:45:00,57.4,-99.9,29.68,ESE,110,0.0,0.0,-999,-99.99,,,-99.99,,2013-07-06 12:45:00,
2013-07-06 05:50:00,57.1,-99.9,29.69,ESE,107,0.0,12.6,-999,-99.99,,,-99.99,,2013-07-06 12:50:00,
2013-07-06 05:55:00,57.3,-99.9,29.69,ESE,107,0.0,0.0,-999,-99.99,,,-99.99,,2013-07-06 12:55:00,
2013-07-06 06:00:00,57.1,-99.9,29.68,East,95,0.0,17.1,-999,-99.99,,,-99.99,,2013-07-06 13:00:00,
2013-07-06 06:05:00,57.1,-99.9,29.68,SE,128,7.9,7.9,-999,-99.99,,,-99.99,,2013-07-06 13:05:00,
2013-07-06 06:10:00,57.2,-99.9,29.69,ESE,121,0.0,0.0,-999,-99.99,,,-99.99,,2013-07-06 13:10:00,
2013-07-06 06:15:00,57.4,-99.9,29.68,ESE,121,0.0,0.0,-999,-99.99,,,-99.99,,2013-07-06 13:15:00,
2013-07-06 06:20:00,57.5,-99.9,29.69,ESE,103,0.0,0.0,-999,-99.99,,,-99.99,,2013-07-06 13:20:00,
2013-07-06 06:25:00,57.4,-99.9,29.69,South,176,0.0,0.0,-999,-99.99,,,-99.99,,2013-07-06 13:25:00,
2013-07-06 06:30:00,57.6,-99.9,29.68,ESE,107,0.0,0.0,-999,-99.99,,,-99.99,,2013-07-06 13:30:00,
2013-07-06 06:35:00,57.8,-99.9,29.69,ESE,107,0.0,0.0,-999,-99.99,,,-99.99,,2013-07-06 13:35:00,
2013-07-06 06:40:00,57.7,-99.9,29.69,ESE,107,0.0,0.0,-999,-99.99,,,-99.99,,2013-07-06 13:40:00,
2013-07-06 06:45:00,57.7,-99.9,29.69,ESE,107,0.0,0.0,-999,-99.99,,,-99.99,,2013-07-06 13:45:00,
2013-07-06 06:50:00,57.9,-99.9,29.69,ESE,107,0.0,0.0,-999,-99.99,,,-99.99,,2013-07-06 13:50:00,
2013-07-06 06:55:00,57.9,-99.9,29.70,ESE,107,0.0,0.0,-999,-99.99,,,-99.99,,2013-07-06 13:55:00,
2013-07-06 07:00:00,57.9,-99.9,29.69,ESE,107,0.0,0.0,-999,-99.99,,,-99.99,,2013-07-06 14:00:00,
2013-07-06 07:05:00,57.9,-99.9,29.69,ESE,121,0.0,0.0,-999,-99.99,,,-99.99,,2013-07-06 14:05:00,
2013-07-06 07:10:00,57.9,-99.9,29.69,East,94,0.0,0.0,-999,-99.99,,,-99.99,,2013-07-06 14:10:00,
2013-07-06 07:15:00,57.9,-99.9,29.69,East,88,13.5,18.0,-999,-99.99,,,-99.99,,2013-07-06 14:15:00,
2013-07-06 07:20:00,57.8,-99.9,29.70,ESE,119,0.0,11.1,-999,-99.99,,,-99.99,,2013-07-06 14:20:00,
2013-07-06 07:25:00,57.8,-99.9,29.70,SE,142,0.0,0.0,-999,-99.99,,,-99.99,,2013-07-06 14:25:00,
2013-07-06 07:30:00,57.8,-99.9,29.70,ENE,70,0.0,0.0,-999,-99.99,,,-99.99,,2013-07-06 14:30:00,
2013-07-06 07:35:00,57.9,-99.9,29.70,East,95,0.0,0.0,-999,-99.99,,,-99.99,,2013-07-06 14:35:00,
2013-07-06 07:40:00,57.9,-99.9,29.70,ESE,112,0.0,8.5,-999,-99.99,,,-99.99,,2013-07-06 14:40:00,
2013-07-06 07:45:00,57.9,-99.9,29.70,ESE,114,0.0,0.0,-999,-99.99,,,-99.99,,2013-07-06 14:45:00,
2013-07-06 07:50:00,57.9,-99.9,29.70,SE,127,0.0,0.0,-999,-99.99,,,-99.99,,2013-07-06 14:50:00,
2013-07-06 07:55:00,57.9,-99.9,29.70,East,100,0.0,19.0,-999,-99.99,,,-99.99,,2013-07-06 14:55:00,
2013-07-06 08:00:00,58.1,-99.9,29.70,East,100,0.0,0.0,-999,-99.99,,,-99.99,,2013-07-06 15:00:00,
2013-07-06 08:05:00,58.2,-99.9,29.70,ESE,117,0.0,12.4,-999,-99.99,,,-99.99,,2013-07-06 15:05:00,
2013-07-06 08:10:00,58.3,-99.9,29.70,ESE,115,0.0,0.0,-999,-99.99,,,-99.99,,2013-07-06 15:10:00,
2013-07-06 08:15:00,58.5,-99.9,29.70,ESE,107,0.0,0.0,-999,-99.99,,,-99.99,,2013-07-06 15:15:00,
2013-07-06 08:20:00,59.1,-99.9,29.71,WNW,302,0.0,15.9,-999,-99.99,,,-99.99,,2013-07-06 15:20:00,
2013-07-06 08:25:00,59.5,-99.9,29.71,ESE,111,0.0,0.0,-999,-99.99,,,-99.99,,2013-07-06 15:25:00,
2013-07-06 08:30:00,59.4,-99.9,29.71,ESE,111,0.0,0.0,-999,-99.99,,,-99.99,,2013-07-06 15:30:00,
2013-07-06 08:35:00,59.7,-99.9,29.71,West,271,0.0,0.0,-999,-99.99,,,-99.99,,2013-07-06 15:35:00,
2013-07-06 08:40:00,60.1,-99.9,29.71,West,271,0.0,7.2,-999,-99.99,,,-99.99,,2013-07-06 15:40:00,
2013-07-06 08:45:00,60.2,-99.9,29.71,West,271,0.0,0.0,-999,-99.99,,,-99.99,,2013-07-06 15:45:00,
2013-07-06 08:50:00,60.2,-99.9,29.71,West,271,0.0,0.0,-999,-99.99,,,-99.99,,2013-07-06 15:50:00,
2013-07-06 08:55:00,60.6,-99.9,29.71,ENE,64,0.0,14.8,-999,-99.99,,,-99.99,,2013-07-06 15:55:00,
2013-07-06 09:00:00,60.8,-99.9,29.72,East,100,11.3,12.6,-999,-99.99,,,-99.99,,2013-07-06 16:00:00,
2013-07-06 09:05:00,60.7,-99.9,29.72,East,97,0.0,0.0,-999,-99.99,,,-99.99,,2013-07-06 16:05:00,
2013-07-06 09:10:00,61.5,-99.9,29.72,ESE,115,0.0,0.0,-999,-99.99,,,-99.99,,2013-07-06 16:10:00,
2013-07-06 09:15:00,61.3,-99.9,29.72,ESE,115,0.0,0.0,-999,-99.99,,,-99.99,,2013-07-06 16:15:00,
2013-07-06 09:20:00,61.7,-99.9,29.73,ESE,119,0.0,0.0,-999,-99.99,,,-99.99,,2013-07-06 16:20:00,
2013-07-06 09:30:00,61.5,-99.9,29.72,ESE,119,0.0,0.0,-999,-99.99,,,-99.99,,2013-07-06 16:30:00,
2013-07-06 09:45:00,61.6,-99.9,29.72,East,90,0.0,0.0,-999,-99.99,,,-99.99,,2013-07-06 16:45:00,
2013-07-06 09:50:00,61.7,-99.9,29.73,ESE,108,0.0,8.7,-999,-99.99,,,-99.99,,2013-07-06 16:50:00,
2013-07-06 10:05:00,61.9,-99.9,29.72,ESE,111,0.0,0.0,-999,-99.99,,,-99.99,,2013-07-06 17:05:00,
2013-07-06 10:15:00,62.3,-99.9,29.73,East,93,0.0,0.0,-999,-99.99,,,-99.99,,2013-07-06 17:15:00,
2013-07-06 10:20:00,62.3,-99.9,29.73,East,90,0.0,0.0,-999,-99.99,,,-99.99,,2013-07-06 17:20:00,
2013-07-06 10:30:00,62.3,-99.9,29.73,SSW,201,0.0,0.0,-999,-99.99,,,-99.99,,2013-07-06 17:30:00,
2013-07-06 10:35:00,62.4,-99.9,29.73,SSW,201,0.0,0.0,-999,-99.99,,,-99.99,,2013-07-06 17:35:00,
2013-07-06 10:40:00,62.4,-99.9,29.73,WSW,256,13.5,14.8,-999,-99.99,,,-99.99,,2013-07-06 17:40:00,
2013-07-06 10:50:00,62.6,-99.9,29.73,ENE,73,0.0,0.0,-999,-99.99,,,-99.99,,2013-07-06 17:50:00,
2013-07-06 10:55:00,62.8,-99.9,29.73,SE,132,0.0,0.0,-999,-99.99,,,-99.99,,2013-07-06 17:55:00,
2013-07-06 11:00:00,62.8,-99.9,29.73,SE,132,0.0,0.0,-999,-99.99,,,-99.99,,2013-07-06 18:00:00,
2013-07-06 11:10:00,63.1,-99.9,29.73,SE,138,0.0,0.0,-999,-99.99,,,-99.99,,2013-07-06 18:10:00,
2013-07-06 11:15:00,63.2,-99.9,29.73,WSW,248,0.0,5.8,-999,-99.99,,,-99.99,,2013-07-06 18:15:00,
2013-07-06 11:20:00,63.3,-99.9,29.73,SE,128,0.0,7.6,-999,-99.99,,,-99.99,,2013-07-06 18:20:00,
2013-07-06 11:30:00,63.4,-99.9,29.73,WSW,239,5.8,18.7,-999,-99.99,,,-99.99,,2013-07-06 18:30:00,
2013-07-06 11:40:00,63.6,-99.9,29.73,WSW,248,0.0,0.0,-999,-99.99,,,-99.99,,2013-07-06 18:40:00,
2013-07-06 11:45:00,63.6,-99.9,29.73,NNE,18,0.0,0.0,-999,-99.99,,,-99.99,,2013-07-06 18:45:00,
2013-07-06 12:00:00,64.1,-99.9,29.73,West,273,0.0,7.6,-999,-99.99,,,-99.99,,2013-07-06 19:00:00,
2013-07-06 12:05:00,64.2,-99.9,29.74,NW,321,0.0,0.0,-999,-99.99,,,-99.99,,2013-07-06 19:05:00,
2013-07-06 12:10:00,64.2,-99.9,29.74,ESE,117,5.8,10.9,-999,-99.99,,,-99.99,,2013-07-06 19:10:00,
2013-07-06 12:15:00,64.3,-99.9,29.74,ESE,107,0.0,0.0,-999,-99.99,,,-99.99,,2013-07-06 19:15:00,
2013-07-06 12:25:00,64.5,-99.9,29.73,West,273,0.0,0.0,-999,-99.99,,,-99.99,,2013-07-06 19:25:00,
2013-07-06 12:30:00,64.6,-99.9,29.73,West,273,0.0,0.0,-999,-99.99,,,-99.99,,2013-07-06 19:30:00,
2013-07-06 12:35:00,64.8,-99.9,29.73,West,273,0.0,6.1,-999,-99.99,,,-99.99,,2013-07-06 19:35:00,
2013-07-06 12:40:00,64.9,-99.9,29.73,ENE,73,0.0,6.4,-999,-99.99,,,-99.99,,2013-07-06 19:40:00,
2013-07-06 12:45:00,65.0,-99.9,29.73,ESE,112,13.8,13.8,-999,-99.99,,,-99.99,,2013-07-06 19:45:00,
2013-07-06 12:50:00,65.1,-99.9,29.73,East,98,7.7,12.2,-999,-99.99,,,-99.99,,2013-07-06 19:50:00,
2013-07-06 13:00:00,65.3,-99.9,29.73,East,97,0.0,0.0,-999,-99.99,,,-99.99,,2013-07-06 20:00:00,
2013-07-06 13:15:00,65.7,-99.9,29.73,SW,230,0.0,13.2,-999,-99.99,,,-99.99,,2013-07-06 20:15:00,
2013-07-06 13:20:00,65.7,-99.9,29.73,SW,218,0.0,0.0,-999,-99.99,,,-99.99,,2013-07-06 20:20:00,
2013-07-06 13:25:00,65.8,-99.9,29.73,SW,218,0.0,0.0,-999,-99.99,,,-99.99,,2013-07-06 20:25:00,
2013-07-06 13:30:00,66.1,-99.9,29.73,SW,218,0.0,0.0,-999,-99.99,,,-99.99,,2013-07-06 20:30:00,
2013-07-06 13:35:00,66.0,-99.9,29.73,SW,230,0.0,7.6,-999,-99.99,,,-99.99,,2013-07-06 20:35:00,
2013-07-06 13:45:00,66.3,-99.9,29.73,SSE,165,0.0,0.0,-999,-99.99,,,-99.99,,2013-07-06 20:45:00,
2013-07-06 13:50:00,66.5,-99.9,29.73,SSE,165,0.0,0.0,-999,-99.99,,,-99.99,,2013-07-06 20:50:00,
2013-07-06 13:55:00,66.6,-99.9,29.73,ESE,108,0.0,15.0,-999,-99.99,,,-99.99,,2013-07-06 20:55:00,
2013-07-06 14:05:00,67.1,-99.9,29.73,ESE,105,9.0,21.2,-999,-99.99,,,-99.99,,2013-07-06 21:05:00,
2013-07-06 14:10:00,67.1,-99.9,29.72,East,100,0.0,0.0,-999,-99.99,,,-99.99,,2013-07-06 21:10:00,
2013-07-06 14:15:00,67.3,-99.9,29.72,SSW,210,0.0,0.0,-999,-99.99,,,-99.99,,2013-07-06 21:15:00,
2013-07-06 14:20:00,67.2,-99.9,29.72,East,90,0.0,0.0,-999,-99.99,,,-99.99,,2013-07-06 21:20:00,
2013-07-06 14:30:00,67.8,-99.9,29.72,ESE,114,7.9,13.7,-999,-99.99,,,-99.99,,2013-07-06 21:30:00,
2013-07-06 14:35:00,67.8,-99.9,29.72,East,95,0.0,0.0,-999,-99.99,,,-99.99,,2013-07-06 21:35:00,
2013-07-06 14:45:00,68.1,-99.9,29.72,ESE,103,0.0,8.7,-999,-99.99,,,-99.99,,2013-07-06 21:45:00,
2013-07-06 14:50:00,68.1,-99.9,29.72,WSW,247,10.9,11.3,-999,-99.99,,,-99.99,,2013-07-06 21:50:00,
2013-07-06 14:55:00,68.3,-99.9,29.72,East,91,0.0,5.8,-999,-99.99,,,-99.99,,2013-07-06 21:55:00,
2013-07-06 15:00:00,68.3,-99.9,29.72,ESE,108,12.2,12.2,-999,-99.99,,,-99.99,,2013-07-06 22:00:00,
2013-07-06 15:10:00,68.5,-99.9,29.72,SW,224,0.0,13.4,-999,-99.99,,,-99.99,,2013-07-06 22:10:00,
2013-07-06 15:20:00,68.8,-99.9,29.71,WSW,258,0.0,0.0,-999,-99.99,,,-99.99,,2013-07-06 22:20:00,
2013-07-06 15:25:00,68.9,-99.9,29.71,WSW,258,0.0,0.0,-999,-99.99,,,-99.99,,2013-07-06 22:25:00,
2013-07-06 15:35:00,69.0,-99.9,29.71,WSW,249,0.0,18.0,-999,-99.99,,,-99.99,,2013-07-06 22:35:00,
2013-07-06 15:40:00,69.0,-99.9,29.71,West,259,10.8,12.6,-999,-99.99,,,-99.99,,2013-07-06 22:40:00,
2013-07-06 15:45:00,69.0,-99.9,29.71,West,269,10.6,15.8,-999,-99.99,,,-99.99,,2013-07-06 22:45:00,
2013-07-06 15:55:00,69.2,-99.9,29.71,WSW,254,0.0,0.0,-999,-99.99,,,-99.99,,2013-07-06 22:55:00,
2013-07-06 16:00:00,69.4,-99.9,29.71,East,94,8.4,12.1,-999,-99.99,,,-99.99,,2013-07-06 23:00:00,
2013-07-06 16:05:00,69.5,-99.9,29.71,NNW,334,8.7,9.0,-999,-99.99,,,-99.99,,2013-07-06 23:05:00,
2013-07-06 16:10:00,69.4,-99.9,29.71,SSW,203,0.0,0.0,-999,-99.99,,,-99.99,,2013-07-06 23:10:00,
2013-07-06 16:20:00,69.6,-99.9,29.71,NNE,29,0.0,0.0,-999,-99.99,,,-99.99,,2013-07-06 23:20:00,
2013-07-06 16:25:00,69.9,-99.9,29.71,SW,214,0.0,8.7,-999,-99.99,,,-99.99,,2013-07-06 23:25:00,
2013-07-06 16:35:00,69.9,-99.9,29.70,SW,234,0.0,0.0,-999,-99.99,,,-99.99,,2013-07-06 23:35:00,
2013-07-06 16:40:00,69.8,-99.9,29.70,West,273,0.0,0.0,-999,-99.99,,,-99.99,,2013-07-06 23:40:00,
2013-07-06 16:50:00,69.9,-99.9,29.71,West,269,0.0,0.0,-999,-99.99,,,-99.99,,2013-07-06 23:50:00,
2013-07-06 17:00:00,69.9,-99.9,29.71,West,263,0.0,12.7,-999,-99.99,,,-99.99,,2013-07-07 00:00:00,
2013-07-06 17:05:00,69.9,-99.9,29.71,NE,35,0.0,8.9,-999,-99.99,,,-99.99,,2013-07-07 00:05:00,
2013-07-06 17:10:00,70.0,-99.9,29.70,NE,35,0.0,0.0,-999,-99.99,,,-99.99,,2013-07-07 00:10:00,
2013-07-06 17:15:00,70.4,-99.9,29.70,NE,35,0.0,0.0,-999,-99.99,,,-99.99,,2013-07-07 00:15:00,
2013-07-06 17:20:00,70.8,-99.9,29.70,NE,35,0.0,0.0,-999,-99.99,,,-99.99,,2013-07-07 00:20:00,
2013-07-06 17:35:00,70.5,-99.9,29.70,NE,35,0.0,0.0,-999,-99.99,,,-99.99,,2013-07-07 00:35:00,
2013-07-06 17:40:00,70.3,-99.9,29.70,West,272,0.0,0.0,-999,-99.99,,,-99.99,,2013-07-07 00:40:00,
2013-07-06 17:45:00,70.4,-99.9,29.70,WSW,238,0.0,0.0,-999,-99.99,,,-99.99,,2013-07-07 00:45:00,
2013-07-06 17:55:00,70.4,-99.9,29.70,WSW,244,8.4,8.4,-999,-99.99,,,-99.99,,2013-07-07 00:55:00,
2013-07-06 18:05:00,70.5,-99.9,29.70,South,180,11.3,11.3,-999,-99.99,,,-99.99,,2013-07-07 01:05:00,
2013-07-06 18:10:00,70.3,-99.9,29.70,WSW,242,0.0,0.0,-999,-99.99,,,-99.99,,2013-07-07 01:10:00,
2013-07-06 18:15:00,70.3,-99.9,29.70,WSW,242,0.0,0.0,-999,-99.99,,,-99.99,,2013-07-07 01:15:00,
2013-07-06 18:20:00,70.3,-99.9,29.70,West,265,0.0,0.0,-999,-99.99,,,-99.99,,2013-07-07 01:20:00,
2013-07-06 18:25:00,70.1,-99.9,29.70,SSW,193,0.0,0.0,-999,-99.99,,,-99.99,,2013-07-07 01:25:00,
2013-07-06 18:35:00,70.2,-99.9,29.70,West,268,0.0,0.0,-999,-99.99,,,-99.99,,2013-07-07 01:35:00,
2013-07-06 18:55:00,69.9,-99.9,29.70,SW,235,0.0,0.0,-999,-99.99,,,-99.99,,2013-07-07 01:55:00,
2013-07-06 19:05:00,69.6,-99.9,29.71,SW,218,0.0,14.3,-999,-99.99,,,-99.99,,2013-07-07 02:05:00,
2013-07-06 19:10:00,69.3,-99.9,29.71,SW,225,0.0,0.0,-999,-99.99,,,-99.99,,2013-07-07 02:10:00,
2013-07-06 19:20:00,68.6,-99.9,29.71,WSW,254,0.0,0.0,-999,-99.99,,,-99.99,,2013-07-07 02:20:00,
2013-07-06 19:25:00,68.6,-99.9,29.71,WSW,254,0.0,0.0,-999,-99.99,,,-99.99,,2013-07-07 02:25:00,
2013-07-06 19:35:00,68.5,-99.9,29.71,WSW,254,0.0,0.0,-999,-99.99,,,-99.99,,2013-07-07 02:35:00,
2013-07-06 19:40:00,68.6,-99.9,29.71,WNW,295,0.0,0.0,-999,-99.99,,,-99.99,,2013-07-07 02:40:00,
2013-07-06 19:45:00,68.4,-99.9,29.71,WNW,295,0.0,0.0,-999,-99.99,,,-99.99,,2013-07-07 02:45:00,
2013-07-06 19:55:00,68.2,-99.9,29.71,WNW,295,0.0,0.0,-999,-99.99,,,-99.99,,2013-07-07 02:55:00,
2013-07-06 20:00:00,68.0,-99.9,29.71,WNW,295,0.0,0.0,-999,-99.99,,,-99.99,,2013-07-07 03:00:00,
2013-07-06 20:10:00,67.0,-99.9,29.71,WNW,295,0.0,0.0,-999,-99.99,,,-99.99,,2013-07-07 03:10:00,
2013-07-06 20:15:00,66.7,-99.9,29.71,WNW,295,0.0,0.0,-999,-99.99,,,-99.99,,2013-07-07 03:15:00,
2013-07-06 20:20:00,66.0,-99.9,29.71,WNW,295,0.0,0.0,-999,-99.99,,,-99.99,,2013-07-07 03:20:00,
2013-07-06 20:30:00,65.7,-99.9,29.71,WNW,295,0.0,0.0,-999,-99.99,,,-99.99,,2013-07-07 03:30:00,
2013-07-06 20:35:00,65.5,-99.9,29.71,WNW,295,0.0,0.0,-999,-99.99,,,-99.99,,2013-07-07 03:35:00,
2013-07-06 20:45:00,65.0,-99.9,29.71,WNW,295,0.0,0.0,-999,-99.99,,,-99.99,,2013-07-07 03:45:00,
2013-07-06 20:50:00,64.8,-99.9,29.71,WNW,295,0.0,0.0,-999,-99.99,,,-99.99,,2013-07-07 03:50:00,
2013-07-06 20:55:00,64.9,-99.9,29.70,WNW,295,0.0,0.0,-999,-99.99,,,-99.99,,2013-07-07 03:55:00,
2013-07-06 21:00:00,64.2,-99.9,29.71,WNW,295,0.0,0.0,-999,-99.99,,,-99.99,,2013-07-07 04:00:00,
2013-07-06 21:05:00,64.4,-99.9,29.71,WNW,295,0.0,0.0,-999,-99.99,,,-99.99,,2013-07-07 04:05:00,
2013-07-06 21:10:00,64.1,-99.9,29.71,WNW,295,0.0,0.0,-999,-99.99,,,-99.99,,2013-07-07 04:10:00,
2013-07-06 21:15:00,64.2,-99.9,29.71,WNW,295,0.0,0.0,-999,-99.99,,,-99.99,,2013-07-07 04:15:00,
2013-07-06 21:20:00,64.1,-99.9,29.71,WNW,295,0.0,0.0,-999,-99.99,,,-99.99,,2013-07-07 04:20:00,
2013-07-06 21:25:00,63.6,-99.9,29.71,WNW,295,0.0,0.0,-999,-99.99,,,-99.99,,2013-07-07 04:25:00,
2013-07-06 21:30:00,63.5,-99.9,29.71,WNW,295,0.0,0.0,-999,-99.99,,,-99.99,,2013-07-07 04:30:00,
2013-07-06 21:35:00,63.1,-99.9,29.71,WNW,295,0.0,0.0,-999,-99.99,,,-99.99,,2013-07-07 04:35:00,
2013-07-06 21:40:00,62.8,-99.9,29.72,WNW,295,0.0,0.0,-999,-99.99,,,-99.99,,2013-07-07 04:40:00,
2013-07-06 21:45:00,62.9,-99.9,29.72,WNW,295,0.0,0.0,-999,-99.99,,,-99.99,,2013-07-07 04:45:00,
2013-07-06 21:50:00,62.5,-99.9,29.72,WNW,295,0.0,0.0,-999,-99.99,,,-99.99,,2013-07-07 04:50:00,
2013-07-06 21:55:00,62.3,-99.9,29.72,WNW,295,0.0,0.0,-999,-99.99,,,-99.99,,2013-07-07 04:55:00,
2013-07-06 22:00:00,62.3,-99.9,29.73,WNW,295,0.0,0.0,-999,-99.99,,,-99.99,,2013-07-07 05:00:00,
2013-07-06 22:05:00,62.0,-99.9,29.73,WNW,295,0.0,0.0,-999,-99.99,,,-99.99,,2013-07-07 05:05:00,
2013-07-06 22:10:00,62.2,-99.9,29.73,WNW,295,0.0,0.0,-999,-99.99,,,-99.99,,2013-07-07 05:10:00,
2013-07-06 22:15:00,62.2,-99.9,29.73,WNW,295,0.0,0.0,-999,-99.99,,,-99.99,,2013-07-07 05:15:00,
2013-07-06 22:20:00,62.0,-99.9,29.73,WNW,295,0.0,0.0,-999,-99.99,,,-99.99,,2013-07-07 05:20:00,
2013-07-06 22:25:00,61.8,-99.9,29.73,WNW,295,0.0,0.0,-999,-99.99,,,-99.99,,2013-07-07 05:25:00,
2013-07-06 22:30:00,61.7,-99.9,29.73,WNW,295,0.0,0.0,-999,-99.99,,,-99.99,,2013-07-07 05:30:00,
2013-07-06 22:35:00,61.3,-99.9,29.73,WNW,295,0.0,0.0,-999,-99.99,,,-99.99,,2013-07-07 05:35:00,
2013-07-06 22:40:00,61.5,-99.9,29.73,WNW,295,0.0,0.0,-999,-99.99,,,-99.99,,2013-07-07 05:40:00,
2013-07-06 22:45:00,61.4,-99.9,29.73,WNW,295,0.0,0.0,-999,-99.99,,,-99.99,,2013-07-07 05:45:00,
2013-07-06 22:50:00,61.5,-99.9,29.73,WNW,295,0.0,0.0,-999,-99.99,,,-99.99,,2013-07-07 05:50:00,
2013-07-06 22:55:00,61.2,-99.9,29.73,WNW,295,0.0,0.0,-999,-99.99,,,-99.99,,2013-07-07 05:55:00,
2013-07-06 23:00:00,61.2,-99.9,29.73,WNW,295,0.0,0.0,-999,-99.99,,,-99.99,,2013-07-07 06:00:00,
2013-07-06 23:05:00,61.1,-99.9,29.73,WNW,295,0.0,0.0,-999,-99.99,,,-99.99,,2013-07-07 06:05:00,
2013-07-06 23:10:00,61.0,-99.9,29.73,WNW,295,0.0,0.0,-999,-99.99,,,-99.99,,2013-07-07 06:10:00,
2013-07-06 23:15:00,60.6,-99.9,29.73,WNW,295,0.0,0.0,-999,-99.99,,,-99.99,,2013-07-07 06:15:00,
2013-07-06 23:20:00,60.7,-99.9,29.73,WNW,295,0.0,0.0,-999,-99.99,,,-99.99,,2013-07-07 06:20:00,
2013-07-06 23:25:00,60.7,-99.9,29.73,WNW,295,0.0,0.0,-999,-99.99,,,-99.99,,2013-07-07 06:25:00,
2013-07-06 23:30:00,60.6,-99.9,29.73,WNW,295,0.0,0.0,-999,-99.99,,,-99.99,,2013-07-07 06:30:00,
2013-07-06 23:40:00,60.3,-99.9,29.73,WNW,295,0.0,0.0,-999,-99.99,,,-99.99,,2013-07-07 06:40:00,
2013-07-06 23:45:00,60.2,-99.9,29.73,WNW,295,0.0,0.0,-999,-99.99,,,-99.99,,2013-07-07 06:45:00,
2013-07-06 23:50:00,60.2,-99.9,29.73,WNW,295,0.0,0.0,-999,-99.99,,,-99.99,,2013-07-07 06:50:00,
2013-07-06 23:55:00,60.2,-99.9,29.73,WNW,295,0.0,0.0,-999,-99.99,,,-99.99,,2013-07-07 06:55:00,